TimeCDT,TemperatureF,Dew PointF,Humidity,Sea Level PressureIn,VisibilityMPH,Wind Direction,Wind SpeedMPH,Gust SpeedMPH,PrecipitationIn,Events,Conditions,WindDirDegrees,DateUTC
12:56 AM,70.9,68.9,93,30.09,9.0,Calm,Calm,-,N/A,,Clear,0,2013-08-28 05:56:00
1:56 AM,70.0,70.0,100,30.08,6.0,Calm,Calm,-,N/A,,Clear,0,2013-08-28 06:56:00
2:40 AM,69.8,69.8,100,30.06,1.5,Calm,Calm,-,N/A,,Clear,0,2013-08-28 07:40:00
2:56 AM,68.9,68.9,100,30.07,3.0,Calm,Calm,-,N/A,,Clear,0,2013-08-28 07:56:00
3:36 AM,68.0,68.0,100,30.06,1.8,Calm,Calm,-,N/A,,Clear,0,2013-08-28 08:36:00
3:44 AM,69.8,69.8,100,30.06,1.2,Calm,Calm,-,N/A,,Clear,0,2013-08-28 08:44:00
3:48 AM,69.8,69.8,100,30.06,2.0,Calm,Calm,-,N/A,,Clear,0,2013-08-28 08:48:00
3:56 AM,68.9,68.9,100,30.08,5.0,Calm,Calm,-,N/A,,Clear,0,2013-08-28 08:56:00
4:12 AM,69.8,69.8,100,30.06,2.0,Calm,Calm,-,N/A,,Clear,0,2013-08-28 09:12:00
4:21 AM,69.8,69.8,100,30.06,5.0,Calm,Calm,-,N/A,,Clear,0,2013-08-28 09:21:00
4:42 AM,68.0,68.0,100,30.07,2.5,Calm,Calm,-,N/A,,Clear,0,2013-08-28 09:42:00
4:56 AM,68.0,68.0,100,30.09,0.8,Calm,Calm,-,N/A,,Clear,0,2013-08-28 09:56:00
5:04 AM,69.8,69.8,100,30.08,1.2,Calm,Calm,-,N/A,,Clear,0,2013-08-28 10:04:00
5:06 AM,69.8,69.8,100,30.08,2.0,Calm,Calm,-,N/A,,Clear,0,2013-08-28 10:06:00
5:20 AM,68.0,68.0,100,30.08,1.0,Calm,Calm,-,N/A,,Clear,0,2013-08-28 10:20:00
5:24 AM,68.0,68.0,100,30.08,0.5,Calm,Calm,-,N/A,Fog,Fog,0,2013-08-28 10:24:00
5:46 AM,68.0,68.0,100,30.09,1.0,Calm,Calm,-,N/A,,Clear,0,2013-08-28 10:46:00
5:48 AM,68.0,68.0,100,30.09,1.5,Calm,Calm,-,N/A,,Clear,0,2013-08-28 10:48:00
5:56 AM,68.0,68.0,100,30.10,2.0,Calm,Calm,-,N/A,,Clear,0,2013-08-28 10:56:00
6:11 AM,66.2,66.2,100,30.10,5.0,Calm,Calm,-,N/A,,Clear,0,2013-08-28 11:11:00
6:34 AM,68.0,68.0,100,30.10,2.5,Calm,Calm,-,N/A,,Clear,0,2013-08-28 11:34:00
6:45 AM,68.0,68.0,100,30.10,4.0,Calm,Calm,-,N/A,,Clear,0,2013-08-28 11:45:00
6:56 AM,68.0,68.0,100,30.12,6.0,Calm,Calm,-,N/A,,Clear,0,2013-08-28 11:56:00
7:56 AM,72.9,70.9,93,30.11,9.0,SSE,4.6,-,N/A,,Clear,160,2013-08-28 12:56:00
8:56 AM,79.0,72.0,79,30.11,10.0,Calm,Calm,-,N/A,,Clear,0,2013-08-28 13:56:00
9:56 AM,82.9,70.9,67,30.11,9.0,NW,6.9,-,N/A,,Clear,310,2013-08-28 14:56:00
10:56 AM,86.9,70.9,59,30.10,10.0,Calm,Calm,-,N/A,,Partly Cloudy,0,2013-08-28 15:56:00
11:56 AM,88.0,70.9,57,30.09,10.0,Variable,4.6,-,N/A,,Scattered Clouds,0,2013-08-28 16:56:00
12:56 PM,88.9,72.0,57,30.08,10.0,North,5.8,-,N/A,,Scattered Clouds,10,2013-08-28 17:56:00
1:56 PM,91.9,70.9,50,30.06,10.0,North,6.9,-,N/A,,Scattered Clouds,350,2013-08-28 18:56:00
2:56 PM,90.9,70.9,52,30.05,10.0,NNE,5.8,-,N/A,,Scattered Clouds,30,2013-08-28 19:56:00
3:56 PM,90.9,68.9,48,30.04,10.0,North,8.1,-,N/A,,Scattered Clouds,360,2013-08-28 20:56:00
4:56 PM,92.8,70.0,47,30.03,10.0,North,6.9,-,N/A,,Mostly Cloudy,360,2013-08-28 21:56:00
5:56 PM,91.9,68.9,47,30.03,10.0,NW,8.1,-,N/A,,Mostly Cloudy,310,2013-08-28 22:56:00
6:56 PM,86.0,70.0,59,30.04,10.0,NNW,6.9,-,N/A,,Clear,330,2013-08-28 23:56:00
7:56 PM,81.9,70.0,67,30.05,10.0,NW,3.5,-,N/A,,Clear,320,2013-08-29 00:56:00
8:56 PM,77.9,70.9,79,30.06,10.0,Calm,Calm,-,N/A,,Clear,0,2013-08-29 01:56:00
9:56 PM,77.0,70.9,81,30.06,10.0,WNW,3.5,-,N/A,,Clear,290,2013-08-29 02:56:00
10:56 PM,77.9,70.9,79,30.06,10.0,West,3.5,-,N/A,,Clear,280,2013-08-29 03:56:00
11:56 PM,72.9,70.9,93,30.05,10.0,Calm,Calm,-,N/A,,Clear,0,2013-08-29 04:56:00